Regional Weather Roundup
Issued by NWS

Home | Current Version | Previous Version | Graphics & Text | Print | Product List | Glossary On
Versions: 1 2 3 4 5 6 7 8 9 10 11 12 13 14 15 16 17 18 19 20 21 22 23 24 25 26 27 28 29 30 31 32 33 34 35 36 37 38 39 40 41 42 43 44 45 46 47 48 49 50
000
ASUS45 KCYS 301210
RWRWY

WYOMING REGIONAL WEATHER ROUNDUP
NATIONAL WEATHER SERVICE CHEYENNE WY
600 AM MDT THU JUL 30 2015

NOTE:  "FAIR" INDICATES FEW OR NO CLOUDS BELOW 12,000 FEET
WITH NO SIGNIFICANT WEATHER AND/OR OBSTRUCTIONS TO VISIBILITY.

WYZ001-301300-
YELLOWSTONE NATIONAL PARK

CITY           SKY/WX    TMP DP  RH WIND       PRES   REMARKS
LK YELLOWSTONE   N/A     34  31  88 CALM      30.54S
6HR MIN TEMP:  34; 6HR MAX TEMP:  42;

W YELLOWSTONE  NOT AVBL

$$
WYZ002>013-054>058-071-098>099-301300-
NORTHERN WYOMING

CITY           SKY/WX    TMP DP  RH WIND       PRES   REMARKS
JACKSON        FAIR      37  34  87 CALM      30.48R
CODY           FAIR      52  36  54 CALM      30.35R
GREYBULL       FAIR      51  35  54 CALM      30.29R
6HR MIN TEMP:  51; 6HR MAX TEMP:  64;

WORLAND        FAIR      48  29  47 CALM      30.31R
6HR MIN TEMP:  48; 6HR MAX TEMP:  58;

SHERIDAN       FAIR      48  40  73 CALM      30.28S
6HR MIN TEMP:  48; 6HR MAX TEMP:  55;

BUFFALO        FAIR      58  34  40 W9        30.35R
6HR MIN TEMP:  56; 6HR MAX TEMP:  60;

GILLETTE       FAIR      51  38  60 S5        30.30R
6HR MIN TEMP:  49; 6HR MAX TEMP:  53;

HULETT         FAIR      50  37  62 S8        30.30S
NEWCASTLE      FAIR      54  36  50 CALM      30.30R

$$
WYZ014>020-022>026-101>103-301300-
CENTRAL WYOMING

CITY           SKY/WX    TMP DP  RH WIND       PRES   REMARKS
BIG PINEY      FAIR      39  31  72 S5        30.48R
6HR MIN TEMP:  36; 6HR MAX TEMP:  53;

PINEDALE       FAIR      34  32  93 W5        30.48R WCI  30
DUBOIS         FAIR      41  30  65 NW12      30.48R
LANDER         FAIR      58  31  35 W3        30.37R
6HR MIN TEMP:  51; 6HR MAX TEMP:  66;

RIVERTON       FAIR      53  32  44 W3        30.38R
6HR MIN TEMP:  52; 6HR MAX TEMP:  66;

CASPER         FAIR      45  30  55 W7        30.37R
6HR MIN TEMP:  42; 6HR MAX TEMP:  53;

DOUGLAS        FAIR      46  39  76 NW3       30.34R
6HR MIN TEMP:  45; 6HR MAX TEMP:  60;


$$
WYZ021-027>030-104>119-301300-
SOUTHERN WYOMING

CITY           SKY/WX    TMP DP  RH WIND       PRES   REMARKS
EVANSTON       FAIR      46  24  42 CALM      30.46R
6HR MIN TEMP:  46; 6HR MAX TEMP:  61;

KEMMERER       FAIR      41  30  65 N10       30.48R
FORT BRIDGER   SUNNY     57  23  26 W3        30.48R
ROCK SPRINGS   FAIR      50  20  30 W10       30.43R
6HR MIN TEMP:  50; 6HR MAX TEMP:  62;

DIXON          FAIR      46  20  35 CALM      30.45R
RAWLINS        FAIR      40  16  37 CALM      30.43R
6HR MIN TEMP:  38; 6HR MAX TEMP:  51;

SARATOGA       FAIR      45  21  39 CALM      30.46R
LARAMIE        FAIR      41  31  67 SW7       30.46R
6HR MIN TEMP:  39; 6HR MAX TEMP:  62;

CHEYENNE       FAIR      54  45  71 W12       30.36R
6HR MIN TEMP:  53; 6HR MAX TEMP:  64;

TORRINGTON     FAIR      53  47  79 NE6       30.25R
6HR MIN TEMP:  52; 6HR MAX TEMP:  69;

PINE BLUFFS    FAIR      48  46  93 SW3       30.32R

$$


USA.gov is the U.S. government's official web portal to all federal, state and local government web resources and services.